Weather History for Everett-Stewart Regional Airp, TN

Change the Weather History Date:

Wednesday, May 7, 2014

  Actual Average (KDYR) Record (KDYR)
Temperature  
Mean Temperature 72 °F -  
Max Temperature 82 °F 74 °F 87 °F (2004)
Min Temperature 62 °F 57 °F 51 °F (2005)
Cooling Degree Days 7    
Growing Degree Days 22 (Base 50)    
Moisture  
Dew Point 58 °F    
Average Humidity 65    
Maximum Humidity 83    
Minimum Humidity 42    
Precipitation  
Precipitation 0.00 in - - ()
Sea Level Pressure  
Sea Level Pressure 29.93 in    
Wind  
Wind Speed 11 mph (South)    
Max Wind Speed 20 mph    
Max Gust Speed -    
Visibility 10 miles    
Events      
Averages and records for this station are not official NWS values.
T = Trace of Precipitation, MM = Missing Value Source: NWS Daily Summary

Daily Weather History Graph

Daily Weather History Graph

Search for Another Location

Airport:

Trip Planner

Search our weather history database for the weather conditions in past years. The results will help you decide how hot, cold, wet, or windy it might be!

Date:

Astronomy

May. 07, 2014 Rise Set
Actual Time 5:56 AM CDT 7:49 PM CDT
Civil Twilight 5:28 AM CDT 8:17 PM CDT
Nautical Twilight 4:54 AM CDT 8:51 PM CDT
Astronomical Twilight 4:18 AM CDT 9:27 PM CDT
Moon 1:05 PM CDT (5/7) 1:43 AM CDT (5/7)
Length of Visible Light 14h 48m
Length of Day
13h 52m
First Quarter, 55% of the Moon is Illuminated
May 7
First Quarter
May 14
Full
May 21
Last Quarter
May 28
New
Jun 5
First Quarter

Hourly Weather History & Observations

Time (CDT) Temp. Heat Index Dew Point Humidity Pressure Visibility Wind Dir Wind Speed Gust Speed Precip Events Conditions
12:35 AM 62.6 °F - 53.6 °F 72% 29.87 in 10.0 mi South 10.4 mph - N/A   Clear
12:55 AM 64.4 °F - 53.6 °F 68% 29.87 in 10.0 mi South 10.4 mph - N/A   Clear
1:15 AM 64.4 °F - 53.6 °F 68% 29.87 in 10.0 mi South 12.7 mph - N/A   Clear
1:35 AM 64.4 °F - 53.6 °F 68% 29.86 in 10.0 mi South 11.5 mph - N/A   Clear
1:55 AM 64.4 °F - 53.6 °F 68% 29.86 in 10.0 mi South 11.5 mph - N/A   Clear
2:15 AM 64.4 °F - 53.6 °F 68% 29.87 in 10.0 mi South 11.5 mph - N/A   Clear
2:35 AM 62.6 °F - 55.4 °F 77% 29.87 in 10.0 mi South 10.4 mph - N/A   Clear
2:55 AM 62.6 °F - 55.4 °F 77% 29.87 in 10.0 mi South 10.4 mph - N/A   Clear
3:15 AM 62.6 °F - 55.4 °F 77% 29.87 in 10.0 mi South 11.5 mph - N/A   Clear
3:35 AM 64.4 °F - 55.4 °F 73% 29.87 in 10.0 mi South 11.5 mph - N/A   Clear
3:55 AM 64.4 °F - 55.4 °F 73% 29.88 in 10.0 mi South 9.2 mph - N/A   Clear
4:15 AM 64.4 °F - 55.4 °F 73% 29.88 in 10.0 mi South 9.2 mph - N/A   Clear
4:35 AM 64.4 °F - 55.4 °F 73% 29.88 in 10.0 mi South 8.1 mph - N/A   Clear
4:55 AM 64.4 °F - 55.4 °F 73% 29.88 in 10.0 mi South 10.4 mph - N/A   Clear
5:15 AM 62.6 °F - 55.4 °F 77% 29.88 in 10.0 mi South 12.7 mph - N/A   Clear
5:35 AM 62.6 °F - 55.4 °F 77% 29.89 in 10.0 mi South 10.4 mph - N/A   Clear
5:55 AM 62.6 °F - 57.2 °F 82% 29.90 in 10.0 mi South 9.2 mph - N/A   Clear
6:15 AM 62.6 °F - 57.2 °F 82% 29.91 in 10.0 mi South 10.4 mph - N/A   Clear
6:35 AM 64.4 °F - 57.2 °F 77% 29.93 in 10.0 mi South 10.4 mph - N/A   Clear
6:55 AM 64.4 °F - 57.2 °F 77% 29.94 in 10.0 mi South 8.1 mph - N/A   Clear
7:15 AM 64.4 °F - 57.2 °F 77% 29.94 in 10.0 mi South 9.2 mph - N/A   Clear
7:35 AM 66.2 °F - 57.2 °F 73% 29.95 in 10.0 mi South 10.4 mph - N/A   Clear
7:55 AM 68.0 °F - 59.0 °F 73% 29.96 in 10.0 mi South 9.2 mph - N/A   Clear
8:15 AM 68.0 °F - 59.0 °F 73% 29.96 in 10.0 mi SSW 10.4 mph - N/A   Clear
8:35 AM 69.8 °F - 60.8 °F 73% 29.96 in 10.0 mi SSW 11.5 mph - N/A   Clear
8:55 AM 69.8 °F - 60.8 °F 73% 29.96 in 10.0 mi SSW 15.0 mph - N/A   Clear
9:15 AM 71.6 °F - 60.8 °F 69% 29.97 in 10.0 mi SSW 15.0 mph - N/A   Clear
9:35 AM 71.6 °F - 60.8 °F 69% 29.97 in 10.0 mi SSW 12.7 mph - N/A   Clear
9:55 AM 71.6 °F - 60.8 °F 69% 29.97 in 10.0 mi SW 16.1 mph - N/A   Partly Cloudy
10:15 AM 73.4 °F - 60.8 °F 65% 29.97 in 10.0 mi SSW 12.7 mph - N/A   Clear
10:35 AM 75.2 °F - 60.8 °F 61% 29.97 in 10.0 mi SSW 13.8 mph - N/A   Clear
10:55 AM 75.2 °F - 60.8 °F 61% 29.97 in 10.0 mi SSW 15.0 mph - N/A   Clear
11:15 AM 75.2 °F - 60.8 °F 61% 29.97 in 10.0 mi SSW 12.7 mph - N/A   Clear
11:35 AM 77.0 °F - 62.6 °F 61% 29.96 in 10.0 mi South 11.5 mph - N/A   Clear
12:15 PM 78.8 °F - 60.8 °F 54% 29.96 in 10.0 mi South 10.4 mph - N/A   Clear
12:35 PM 78.8 °F - 60.8 °F 54% 29.96 in 10.0 mi SSW 12.7 mph - N/A   Clear
12:55 PM 78.8 °F - 59.0 °F 51% 29.96 in 10.0 mi South 12.7 mph - N/A   Clear
1:15 PM 78.8 °F - 59.0 °F 51% 29.95 in 10.0 mi SSW 12.7 mph - N/A   Clear
1:35 PM 80.6 °F 81.1 °F 59.0 °F 48% 29.95 in 10.0 mi SSW 15.0 mph - N/A   Clear
1:55 PM 80.6 °F 81.5 °F 60.8 °F 51% 29.95 in 10.0 mi South 13.8 mph - N/A   Clear
2:15 PM 80.6 °F 80.8 °F 57.2 °F 45% 29.95 in 10.0 mi South 11.5 mph - N/A   Clear
2:35 PM 80.6 °F 81.5 °F 60.8 °F 51% 29.94 in 10.0 mi South 10.4 mph - N/A   Clear
2:55 PM 80.6 °F 81.5 °F 60.8 °F 51% 29.94 in 10.0 mi South 15.0 mph - N/A   Clear
3:15 PM 80.6 °F 81.1 °F 59.0 °F 48% 29.93 in 10.0 mi South 13.8 mph - N/A   Clear
3:35 PM 80.6 °F 81.1 °F 59.0 °F 48% 29.93 in 10.0 mi South 11.5 mph - N/A   Clear
3:55 PM 80.6 °F 81.5 °F 60.8 °F 51% 29.92 in 10.0 mi South 19.6 mph - N/A   Clear
4:15 PM 80.6 °F 81.1 °F 59.0 °F 48% 29.91 in 10.0 mi South 16.1 mph - N/A   Clear
4:35 PM 80.6 °F 81.1 °F 59.0 °F 48% 29.91 in 10.0 mi South 15.0 mph - N/A   Clear
4:55 PM 82.4 °F 82.0 °F 57.2 °F 42% 29.91 in 10.0 mi South 15.0 mph - N/A   Clear
5:15 PM 80.6 °F 80.8 °F 57.2 °F 45% 29.91 in 10.0 mi South 12.7 mph - N/A   Clear
5:35 PM 82.4 °F 82.5 °F 59.0 °F 45% 29.92 in 10.0 mi SSW 15.0 mph - N/A   Clear
5:55 PM 80.6 °F 81.5 °F 60.8 °F 51% 29.92 in 10.0 mi South 11.5 mph - N/A   Clear
6:15 PM 80.6 °F 81.1 °F 59.0 °F 48% 29.92 in 10.0 mi South 15.0 mph - N/A   Clear
6:35 PM 78.8 °F - 60.8 °F 54% 29.91 in 10.0 mi South 12.7 mph - N/A   Clear
6:55 PM 78.8 °F - 60.8 °F 54% 29.91 in 10.0 mi South 9.2 mph - N/A   Clear
7:15 PM 77.0 °F - 59.0 °F 54% 29.92 in 10.0 mi South 10.4 mph - N/A   Clear
7:35 PM 75.2 °F - 60.8 °F 61% 29.92 in 10.0 mi South 9.2 mph - N/A   Clear
7:55 PM 73.4 °F - 60.8 °F 65% 29.93 in 10.0 mi South 8.1 mph - N/A   Clear
8:15 PM 73.4 °F - 59.0 °F 61% 29.93 in 10.0 mi South 8.1 mph - N/A   Clear
8:35 PM 71.6 °F - 59.0 °F 64% 29.94 in 10.0 mi South 8.1 mph - N/A   Clear
8:55 PM 71.6 °F - 59.0 °F 64% 29.95 in 10.0 mi South 9.2 mph - N/A   Clear
9:15 PM 69.8 °F - 59.0 °F 68% 29.95 in 10.0 mi South 8.1 mph - N/A   Clear
9:35 PM 69.8 °F - 59.0 °F 68% 29.96 in 10.0 mi South 8.1 mph - N/A   Clear
9:55 PM 69.8 °F - 59.0 °F 68% 29.96 in 10.0 mi SSE 8.1 mph - N/A   Clear
10:15 PM 69.8 °F - 59.0 °F 68% 29.97 in 10.0 mi South 8.1 mph - N/A   Clear
10:35 PM 66.2 °F - 60.8 °F 83% 29.96 in 10.0 mi South 5.8 mph - N/A   Clear
10:55 PM 64.4 °F - 59.0 °F 83% 29.97 in 10.0 mi South 8.1 mph - N/A   Clear
11:15 PM 64.4 °F - 59.0 °F 83% 29.97 in 10.0 mi South 8.1 mph - N/A   Clear
11:35 PM 66.2 °F - 60.8 °F 83% 29.97 in 10.0 mi South 8.1 mph - N/A   Clear
11:55 PM 66.2 °F - 60.8 °F 83% 29.97 in 10.0 mi South 8.1 mph - N/A   Clear